Wind_Speed
17 16 15 15 15 15 16 16 16 16 16 16 16 16 16 16 16 17 19 20 21 22 24 25 26 26 27 27 27 28 28 28 28 27 26 25 25 25 26 27 28 29 30 31 32 33 33 34 35 36 36 37 37 38 38 38 38 37 38 38 36 36 37 39 41 41 35 34 36 35 33 36 35 31 31 33 34 33 32 33 35 35 35 35 36
16 15 13 13 13 13 13 13 13 13 13 13 13 13 14 15 16 17 18 20 21 22 23 23 24 24 24 25 25 25 24 24 23 23 23 24 24 26 27 28 29 30 31 32 33 34 35 35 36 37 37 37 37 38 39 39 39 39 39 39 38 36 37 39 41 42 39 35 35 36 35 36 36 33 31 32 33 32 30 31 34 35 34 35 35
15 13 12 12 11 11 12 11 11 11 11 11 11 12 13 14 16 17 18 19 20 21 21 21 21 21 21 21 21 20 20 20 20 21 23 24 26 27 29 30 31 32 33 33 34 35 35 36 37 38 38 38 38 39 39 39 40 40 40 41 41 39 38 39 40 42 42 38 35 35 36 36 35 34 33 32 32 33 31 31 33 35 35 34 35
14 12 11 11 10 11 11 10 10 10 10 10 11 12 13 14 16 17 17 18 18 18 18 18 18 17 17 17 17 17 18 20 21 23 24 25 27 28 29 30 31 32 33 33 34 35 36 36 37 38 39 39 39 39 40 40 40 41 41 41 42 42 40 39 40 41 43 42 38 35 36 37 36 34 34 33 32 33 32 32 33 36 37 35 35
12 11 10 10 10 10 9 9 9 9 9 10 11 12 14 14 15 15 15 15 15 15 15 15 14 14 14 15 16 18 19 21 22 24 25 26 27 28 29 29 30 31 32 33 34 35 36 37 37 38 39 39 40 40 40 41 41 41 42 42 42 43 42 41 40 40 41 43 41 37 36 38 38 36 35 35 34 34 33 32 33 35 38 37 36
11 10 10 9 9 8 8 8 9 9 10 11 12 12 13 13 13 13 13 13 13 13 12 12 12 13 14 15 17 18 20 22 23 24 25 26 27 28 29 29 30 31 32 33 34 34 35 36 37 38 39 39 40 40 41 41 42 42 43 43 44 44 43 42 41 41 41 41 42 39 37 38 38 37 35 34 35 35 33 33 32 34 37 38 37
11 10 9 8 8 8 8 8 9 9 10 10 11 11 11 11 11 11 11 11 10 10 11 11 13 14 15 17 18 19 21 22 23 25 26 26 27 28 29 30 31 32 33 33 34 34 35 36 36 37 38 38 39 40 41 42 42 43 43 44 45 45 45 45 44 43 42 41 41 40 39 38 38 37 34 33 35 35 33 32 32 33 36 36 36
10 9 9 8 8 8 8 8 8 8 9 9 9 9 9 9 9 9 9 8 9 9 11 12 14 15 17 18 20 21 22 23 24 24 26 27 28 29 29 30 31 32 33 34 34 35 35 35 36 37 37 38 39 39 41 42 43 44 44 45 45 46 46 47 46 46 45 43 42 40 40 40 39 38 36 35 34 34 32 31 30 31 33 33 33
10 9 8 8 7 7 7 7 7 7 7 7 6 7 7 7 7 6 7 7 8 10 11 13 15 16 18 19 20 22 23 24 25 25 26 27 28 29 30 31 32 33 33 34 34 35 35 36 36 37 37 38 38 39 39 41 42 44 45 45 46 46 47 47 48 48 48 46 44 42 40 40 41 41 40 39 37 34 32 31 29 28 29 29 30
9 9 8 7 7 6 6 6 6 5 5 5 5 5 4 4 4 5 6 7 9 11 12 14 16 17 19 20 21 22 23 24 25 26 27 27 28 29 30 31 33 33 34 34 34 34 35 35 36 36 37 38 38 38 38 39 40 42 43 44 45 46 47 47 48 48 49 49 47 45 42 40 40 42 43 42 39 37 34 32 30 28 27 29 30
9 8 7 7 6 6 5 5 4 3 3 3 2 2 1 2 3 5 7 8 10 12 13 15 16 17 19 20 21 22 23 24 25 26 27 28 29 30 31 32 33 34 34 35 35 35 35 35 35 36 37 38 39 39 39 39 39 40 41 42 43 43 44 45 46 47 48 49 48 47 46 43 39 40 43 43 42 40 37 33 31 29 28 29 30
8 8 7 7 6 5 5 4 3 2 2 1 1 1 1 3 5 6 8 9 11 13 14 15 16 17 18 20 21 22 23 24 25 26 27 28 29 31 32 33 34 34 35 35 35 36 36 36 36 36 38 39 40 41 41 40 40 40 40 41 41 41 41 41 43 44 46 49 49 48 47 45 41 38 39 41 42 42 40 35 31 30 30 30 31
8 8 7 7 6 5 5 4 3 2 2 2 1 1 2 4 6 7 9 10 12 13 14 15 16 17 18 19 20 21 22 23 24 25 27 28 30 31 32 33 34 35 35 36 36 36 36 36 37 38 39 40 41 42 42 42 41 40 39 39 39 39 39 39 39 40 42 45 48 49 47 45 44 39 35 37 40 41 41 38 33 31 32 32 31
9 8 8 7 6 6 5 4 3 3 3 2 1 2 3 5 6 8 9 11 12 13 14 15 16 17 18 19 20 21 22 23 24 25 27 28 29 31 32 33 34 35 35 35 36 36 36 37 38 38 40 40 41 42 42 41 40 39 37 35 35 35 36 36 37 38 39 40 43 48 47 45 44 40 34 35 38 39 41 40 36 33 33 32 30
9 9 8 8 8 7 6 5 5 4 3 2 1 2 4 5 7 9 10 11 12 12 13 15 16 17 18 19 20 21 22 23 24 25 27 28 29 31 32 33 34 34 34 35 35 35 36 36 37 38 39 40 40 41 41 41 40 38 36 33 32 32 32 33 34 35 37 38 38 42 45 44 43 41 36 35 37 38 39 40 38 35 34 33 31
10 10 10 9 9 7 7 6 6 5 3 2 2 3 4 6 7 9 10 11 12 12 13 15 16 17 18 19 20 21 22 24 25 26 27 28 29 31 32 33 34 34 34 33 33 34 34 35 36 38 38 39 40 41 41 42 41 39 36 35 33 30 28 28 30 31 33 34 35 37 40 42 41 39 36 35 36 36 38 41 39 35 34 34 33
11 11 11 10 9 8 8 7 6 4 3 2 2 4 5 7 8 9 10 10 11 12 14 15 16 17 18 19 20 22 23 24 25 26 27 28 30 32 33 34 34 34 34 33 33 33 33 34 35 37 38 39 41 42 43 43 43 42 40 38 36 31 27 25 26 27 28 29 30 32 35 38 39 37 35 34 35 36 38 41 39 34 33 35 33
12 12 12 10 10 9 9 7 5 3 2 2 3 4 6 7 8 9 9 10 11 13 14 15 16 17 18 20 21 22 24 25 26 27 28 29 31 32 33 34 34 34 34 33 33 33 33 34 35 36 38 40 42 43 44 44 45 45 44 42 40 35 31 29 28 27 26 25 25 27 29 33 35 35 34 32 33 36 39 39 37 34 34 34 32
14 13 12 11 11 10 8 6 4 3 2 2 3 5 6 7 8 8 9 10 12 13 14 16 17 18 19 20 22 23 24 25 26 27 29 30 31 33 34 34 34 34 34 34 34 34 34 35 36 36 38 40 41 42 44 44 45 45 44 43 41 38 35 34 33 33 32 28 24 22 24 27 30 32 32 31 32 35 37 37 36 36 35 32 30
15 14 13 12 11 9 7 5 3 2 1 3 4 5 6 6 7 8 9 11 12 14 15 16 17 18 19 21 22 23 24 25 26 27 29 30 32 33 34 35 35 34 34 34 35 35 35 36 36 37 38 39 39 41 42 42 42 42 42 40 39 37 34 32 32 32 34 32 26 21 19 21 25 27 29 29 30 33 34 33 34 36 35 31 30
16 15 14 13 10 8 6 4 2 1 1 3 4 5 6 6 7 8 9 11 13 14 15 16 17 18 20 21 22 23 24 25 26 28 29 31 32 33 34 35 35 34 34 35 35 36 36 36 36 36 37 37 38 39 39 39 39 39 37 36 34 33 31 30 28 28 29 29 25 21 18 17 19 22 25 26 28 30 30 29 31 34 34 31 30
17 16 14 12 9 7 5 4 2 0 2 3 4 5 5 6 7 9 10 12 13 14 16 16 17 19 20 21 22 23 24 25 26 28 29 31 32 33 34 34 34 34 35 34 35 35 36 36 36 35 35 35 36 37 37 37 38 36 34 32 31 29 27 27 27 25 26 26 20 17 17 16 16 18 21 24 26 27 27 25 27 31 32 30 29
17 16 14 11 9 7 5 3 2 1 2 3 4 4 5 6 8 10 11 13 14 15 16 17 18 19 20 21 22 23 24 25 26 28 29 30 31 32 33 34 34 34 34 34 35 35 36 36 35 34 33 33 34 35 36 37 37 35 32 31 31 30 28 28 27 25 24 25 21 12 12 13 14 15 17 21 23 24 24 24 25 29 29 27 26
18 15 13 11 9 7 5 4 3 2 2 2 3 4 6 7 9 11 12 13 14 15 16 17 18 19 20 21 22 23 24 25 26 27 28 29 30 31 32 33 33 33 32 33 34 34 35 34 33 33 33 33 33 34 35 36 36 35 33 32 33 33 32 31 30 28 25 25 24 19 12 9 11 13 14 17 20 21 22 23 24 26 26 25 24
17 15 12 10 9 7 6 5 3 2 2 2 3 4 6 8 9 11 12 13 14 15 16 16 17 18 19 20 21 22 23 24 25 26 27 28 29 31 32 32 32 32 32 32 32 32 33 33 32 32 33 33 33 34 34 35 35 35 34 33 34 35 35 35 34 31 28 26 24 24 20 13 7 8 11 14 17 19 20 22 23 24 24 24 23
16 14 12 11 10 8 7 5 4 3 2 2 3 5 6 8 9 11 12 13 14 15 15 16 17 18 19 19 20 21 22 23 24 25 26 28 29 30 31 32 32 32 32 32 31 31 31 32 32 32 32 32 33 33 34 35 36 36 36 35 35 36 37 38 37 34 31 28 25 24 23 20 13 6 6 10 13 15 17 20 21 21 20 20 20
16 14 13 12 10 9 7 6 4 3 2 2 3 4 6 7 8 10 11 12 13 14 15 16 17 18 19 20 21 21 22 23 24 25 26 27 29 30 31 32 32 32 32 32 32 32 31 32 32 32 32 32 32 33 34 35 36 38 38 37 37 38 39 39 39 36 33 31 28 25 24 22 18 13 5 3 7 10 12 15 17 17 17 17 18
16 14 13 12 11 9 8 6 4 3 2 2 3 4 5 6 8 9 10 12 13 14 15 16 17 18 19 20 21 22 23 24 25 25 26 27 29 29 30 31 33 33 33 32 32 32 31 31 31 31 31 32 33 33 34 35 36 38 39 39 39 40 39 39 40 38 35 33 29 26 24 23 22 21 15 8 2 3 6 8 10 12 12 13 14
16 15 14 13 11 10 8 6 4 3 1 1 2 4 5 6 7 9 10 11 12 13 14 15 16 18 19 20 21 22 23 24 25 26 27 28 29 30 31 32 33 33 33 32 31 31 31 31 31 31 31 32 33 33 34 35 36 37 38 40 40 41 41 42 43 42 39 36 32 29 26 25 26 25 21 16 12 7 3 3 4 5 6 6 7
16 16 15 14 12 10 8 6 5 3 1 0 2 3 4 5 7 8 9 11 12 13 14 15 16 17 18 19 21 22 23 24 25 26 26 28 29 30 31 32 32 32 32 30 30 30 31 31 31 32 33 33 33 34 34 35 36 37 38 39 40 41 43 44 44 43 42 39 36 32 30 29 29 28 25 22 20 16 12 7 4 1 1 1 2
17 16 16 14 12 10 8 7 5 3 2 0 1 3 4 5 7 8 9 10 11 13 14 15 16 17 18 19 21 22 23 24 24 25 26 27 28 29 30 31 32 31 31 30 30 30 31 31 31 32 33 34 34 35 35 36 37 37 38 39 40 41 42 43 43 44 43 41 38 35 32 32 33 32 28 26 24 22 19 16 12 8 6 5 3
18 17 16 15 13 11 9 7 5 4 2 1 2 3 4 5 6 7 8 10 11 12 13 14 16 17 18 19 20 21 22 24 24 25 26 27 27 28 29 30 30 30 30 31 31 30 30 31 32 32 33 34 34 35 35 35 36 37 38 39 39 40 40 41 42 42 43 43 41 38 35 35 35 33 31 29 26 24 23 21 19 15 12 10 8
19 18 17 15 13 11 9 7 6 5 3 2 2 3 4 5 6 7 8 9 10 12 13 14 15 16 18 19 20 21 22 23 24 25 26 26 27 28 28 29 29 29 30 31 32 31 30 31 32 32 33 34 34 34 34 35 35 37 37 38 38 38 38 38 39 40 41 43 42 41 39 39 37 35 34 31 29 28 26 25 24 21 18 16 14
19 19 17 15 13 11 10 8 7 6 4 4 3 3 4 5 6 7 8 9 10 11 12 13 15 16 17 18 19 20 21 22 23 24 25 25 26 27 27 28 29 30 32 32 32 31 31 31 31 32 33 33 33 34 34 34 34 35 36 36 37 37 36 37 38 39 40 41 42 41 41 41 39 38 36 34 32 31 30 29 28 26 23 21 19
20 19 18 16 14 12 11 9 8 7 6 5 4 4 4 5 6 7 8 9 10 11 13 14 14 15 17 18 18 19 20 21 22 23 24 25 26 26 26 28 29 31 31 31 31 31 31 31 30 31 32 33 33 33 33 33 34 34 35 35 35 35 35 36 37 38 38 39 40 41 41 41 41 40 38 35 33 33 33 33 32 30 27 24 23
20 20 18 16 14 13 12 10 9 8 7 6 5 5 6 6 6 7 8 9 10 11 12 14 15 15 16 17 18 19 20 21 22 22 23 24 25 25 26 27 29 30 30 31 31 31 31 30 29 30 30 31 32 32 32 32 33 33 33 33 33 33 34 34 35 36 37 37 39 40 40 41 41 40 39 38 35 34 33 32 32 31 29 26 23
21 20 18 16 15 14 12 11 10 9 8 7 7 7 7 7 7 8 9 9 10 10 11 13 14 15 15 16 17 18 19 20 20 21 22 23 24 25 26 27 28 28 29 30 30 30 30 30 29 28 28 29 30 30 30 31 32 32 32 32 32 32 32 33 33 34 34 36 37 38 39 40 40 40 39 39 38 36 34 32 31 30 29 26 24
21 20 18 16 15 14 13 13 12 10 9 8 8 8 8 8 8 8 9 10 10 11 11 12 13 15 16 16 17 18 18 19 20 21 22 23 23 24 25 26 26 27 28 29 29 29 29 29 29 28 28 27 28 29 29 30 31 31 31 31 32 31 31 31 32 32 32 34 35 36 37 38 39 39 39 39 39 39 37 34 32 30 29 28 27
21 20 18 17 16 15 14 14 13 12 11 10 9 9 9 9 9 9 10 10 11 11 11 12 12 13 14 15 16 17 18 19 19 20 21 22 22 23 23 24 25 26 26 27 28 29 29 29 29 28 27 27 27 27 28 28 29 30 30 31 31 31 31 31 31 31 31 32 33 34 35 36 37 38 38 38 38 38 38 37 34 32 30 30 29
21 19 18 18 17 16 15 15 14 13 12 11 11 10 11 11 11 11 11 11 11 11 12 12 12 13 14 14 15 16 17 17 18 18 19 20 20 21 22 22 23 24 25 26 26 27 28 28 28 28 27 27 26 26 27 27 27 28 29 30 30 30 30 30 30 30 30 31 32 32 32 34 35 35 36 36 36 36 37 37 35 33 32 31 29
21 20 19 18 18 17 16 16 15 14 13 13 13 12 12 12 12 12 12 12 12 12 12 12 13 13 13 14 14 15 16 16 17 18 18 19 19 20 20 21 21 22 23 24 25 25 26 27 27 27 27 26 26 26 26 26 26 26 27 28 29 29 29 29 28 28 29 30 30 30 31 32 32 33 33 34 34 34 34 35 34 33 32 32 30
21 21 20 19 19 18 18 17 16 16 15 15 15 15 14 14 13 13 13 13 13 13 13 13 14 14 14 13 14 14 15 16 17 18 18 18 18 19 19 20 20 21 22 23 23 24 25 25 26 26 26 26 26 26 25 25 25 25 26 26 27 27 28 28 27 27 27 28 28 29 29 30 30 30 30 31 32 32 33 32 32 32 32 31 31
22 21 21 20 20 19 19 18 18 17 17 17 17 17 17 16 15 14 14 14 14 14 14 14 15 15 15 14 14 14 14 15 16 17 18 19 18 18 18 19 19 20 20 21 22 23 23 24 25 25 26 26 26 26 26 25 25 24 24 25 25 26 26 26 26 26 26 26 26 27 28 28 28 28 28 29 29 30 30 30 30 30 30 30 29
22 22 22 21 21 20 20 20 19 19 18 19 20 20 19 18 17 16 16 16 16 15 15 15 15 16 16 16 15 15 14 14 15 16 17 19 19 19 18 18 18 19 19 20 20 21 22 22 23 24 24 25 25 25 25 25 25 24 24 24 24 24 24 25 25 26 26 25 25 25 25 26 26 26 26 27 27 27 27 28 28 28 28 27 27
23 23 22 22 22 21 21 21 20 20 20 21 21 22 21 21 19 18 18 18 18 17 17 17 17 17 17 17 17 17 16 16 15 15 16 17 19 19 19 18 18 18 18 18 19 19 20 21 21 22 22 23 23 24 24 24 24 24 24 24 23 23 23 24 24 24 24 24 24 24 24 24 24 25 25 25 25 25 25 25 26 26 26 25 25
23 23 23 23 22 22 22 22 22 22 22 22 22 23 23 23 22 21 20 20 19 19 19 19 19 19 19 19 19 19 18 18 17 16 16 16 17 19 19 19 18 18 18 17 17 18 18 19 19 20 20 21 21 22 22 23 23 24 24 24 23 23 23 23 23 23 23 23 23 23 23 22 22 23 23 23 23 23 23 23 23 24 24 24 23
24 24 23 23 23 23 23 23 23 23 23 23 24 24 24 24 24 24 23 22 22 21 21 21 21 21 21 21 20 20 20 20 19 19 18 17 17 18 19 19 19 18 17 17 17 17 17 17 18 18 18 19 19 20 20 21 22 22 23 23 23 23 22 22 22 22 22 22 22 22 21 21 21 21 21 21 21 21 21 21 22 22 22 21 21
25 24 24 24 24 24 24 24 24 24 24 24 24 25 25 26 26 25 25 24 24 23 23 23 23 23 22 22 22 22 22 22 22 21 20 19 18 18 18 19 19 18 18 17 17 17 16 17 17 16 16 17 17 18 18 19 19 20 21 21 22 22 22 22 21 21 21 21 21 20 20 20 20 19 19 19 19 19 19 19 19 20 20 20 20
25 25 25 25 24 25 25 25 25 25 25 25 25 26 26 26 26 26 26 26 26 25 25 25 25 25 24 24 24 24 24 24 23 23 23 22 21 19 19 19 20 19 19 18 17 17 16 16 15 15 15 15 15 16 16 17 17 18 19 19 20 21 21 21 21 21 20 20 20 19 19 19 18 18 18 18 17 18 18 17 17 17 18 18 18
27 27 26 26 25 25 25 26 26 27 26 26 26 26 26 26 27 27 27 27 27 27 27 26 26 26 26 26 26 25 25 25 25 25 25 24 23 22 21 20 20 20 20 19 18 17 17 16 15 14 14 13 13 14 14 15 16 16 17 17 18 18 19 19 20 20 20 20 19 19 18 18 17 17 17 16 16 16 16 16 16 16 15 15 15
29 28 28 27 27 26 26 26 27 27 27 27 26 26 26 27 27 27 28 28 28 28 27 27 27 27 27 27 27 27 27 27 27 26 26 26 25 24 23 21 21 21 21 20 19 18 17 16 15 14 14 13 13 13 13 14 14 15 15 16 16 16 17 17 18 18 18 19 18 18 18 17 17 16 16 15 15 15 14 14 14 14 14 14 13
Wind_Direction
282 277 271 263 257 253 251 251 252 254 256 258 260 264 268 274 279 283 287 289 292 294 295 296 297 298 299 300 302 305 307 309 311 313 315 317 319 320 321 322 321 321 320 319 318 317 315 314 312 311 310 309 308 307 305 304 302 299 297 294 292 289 287 285 284 285 284 279 278 276 273 272 274 275 276 275 278 279 269 258 257 256 253 252 249
274 267 261 254 250 249 249 252 253 255 258 260 264 270 275 281 285 288 291 293 295 297 298 299 299 300 303 305 308 310 313 315 317 319 321 322 322 322 322 322 322 321 319 318 317 315 314 313 311 310 309 308 307 306 305 304 303 301 299 297 294 290 287 285 283 284 284 280 276 274 273 272 273 274 276 276 276 277 273 263 259 257 254 251 248
265 259 253 248 247 249 251 254 256 259 262 267 273 279 283 287 290 292 295 296 297 298 299 301 303 306 309 312 315 317 319 322 322 323 324 323 324 324 323 322 321 320 319 317 316 314 313 312 310 309 308 306 305 304 303 302 301 300 299 297 295 293 289 286 284 283 283 281 276 273 271 270 270 271 273 275 276 277 278 275 265 256 252 250 247
256 251 247 247 249 252 255 258 261 266 271 276 282 286 289 292 294 296 297 298 299 301 303 307 311 315 318 321 323 324 325 326 326 326 326 326 326 325 323 322 321 320 319 318 316 315 313 311 310 308 307 306 305 303 302 301 299 298 297 296 295 294 291 288 285 283 283 282 278 273 271 270 269 268 269 273 277 277 280 282 273 257 248 247 245
248 245 246 250 252 255 259 263 268 273 279 284 287 291 294 296 297 298 299 301 304 308 311 316 320 325 327 327 327 328 328 329 329 328 328 327 326 325 324 323 322 321 320 319 317 316 314 313 311 309 308 306 305 304 302 300 299 298 297 295 294 293 292 289 286 283 281 281 279 274 270 269 268 267 268 270 274 276 278 282 277 260 248 245 242
243 244 247 248 250 255 259 265 273 278 284 288 292 295 297 297 298 301 304 308 313 317 321 326 329 330 330 330 330 331 331 331 330 330 329 328 327 327 326 326 325 323 322 321 319 317 316 314 312 311 310 308 307 305 304 302 300 299 298 296 294 293 291 290 288 285 281 279 278 274 269 267 267 267 268 268 271 275 277 281 278 262 249 245 240
240 241 244 246 249 256 262 270 277 283 289 293 296 297 298 300 304 309 314 318 322 326 330 333 332 332 332 332 333 333 333 333 332 331 331 330 331 331 330 329 328 327 325 323 321 319 318 316 315 315 314 314 313 312 309 306 304 302 300 298 296 294 292 291 289 286 283 279 277 273 268 265 265 265 267 266 267 272 277 283 279 261 249 245 241
234 235 239 243 250 258 267 276 282 288 292 294 295 297 302 308 314 319 322 326 331 334 335 334 333 333 334 334 335 334 334 334 334 334 334 334 335 334 333 332 331 330 328 326 325 323 322 321 320 320 320 319 319 319 317 314 310 306 304 301 299 296 294 292 290 288 285 281 278 273 267 262 260 260 262 264 265 268 274 281 278 262 251 247 244
229 232 237 242 252 262 270 277 283 287 288 290 295 303 311 318 322 325 329 334 337 336 335 334 335 336 336 336 336 335 336 336 335 337 338 338 338 337 335 335 333 332 331 329 328 328 327 326 326 325 324 322 322 321 321 319 315 312 308 305 302 299 296 294 292 289 287 283 280 275 268 261 257 256 257 260 263 265 268 273 274 266 255 252 251
228 233 240 246 254 260 266 272 275 277 280 290 301 312 319 321 325 332 336 339 338 337 336 336 337 337 337 337 337 337 337 338 338 340 340 340 339 338 337 337 336 334 333 332 331 331 331 331 330 328 326 324 323 322 322 321 319 316 313 310 306 302 299 295 293 291 288 285 282 278 272 264 257 255 255 257 260 263 264 266 270 269 259 255 257
229 237 244 250 253 256 259 259 257 261 275 292 303 311 313 321 334 340 341 340 337 336 336 336 337 337 337 337 338 339 339 340 341 341 340 340 340 340 340 339 338 337 335 334 334 333 334 333 332 330 328 327 325 324 324 323 321 318 316 313 311 307 303 299 294 291 289 286 283 280 277 271 261 254 254 255 256 258 259 259 263 267 264 258 258
231 239 244 246 248 248 242 233 230 242 257 251 212 221 307 336 344 343 339 337 336 336 336 336 336 336 338 339 339 340 341 341 341 340 341 342 342 342 342 341 340 339 338 338 337 336 336 335 334 333 332 330 329 327 326 325 323 321 318 316 314 312 309 304 298 293 289 286 283 280 278 275 269 259 253 253 253 252 253 254 256 261 264 262 261
230 233 235 235 233 225 214 206 209 209 185 175 188 280 335 345 342 336 335 334 335 335 334 335 336 337 338 339 340 341 341 340 341 342 343 344 345 344 344 343 343 342 341 340 340 339 338 337 336 336 335 334 332 330 329 327 325 323 320 318 316 315 312 308 303 297 292 287 283 280 278 276 272 265 256 251 250 248 247 248 251 255 258 260 262
221 219 218 216 209 200 194 191 190 179 172 184 232 330 338 337 333 331 333 334 333 334 334 335 338 338 339 341 341 341 341 342 344 345 345 346 346 346 346 345 345 345 344 343 342 341 340 339 339 339 338 337 335 333 332 330 328 326 323 319 317 315 313 309 303 299 293 288 283 280 278 276 273 268 260 251 249 247 244 244 248 252 255 257 258
205 203 201 196 190 186 185 183 178 174 178 203 293 324 328 330 330 332 333 333 333 334 336 337 339 340 341 343 343 342 343 345 346 346 347 347 347 347 348 348 348 347 346 346 345 343 342 341 341 341 340 339 337 336 335 334 332 330 327 324 319 316 312 307 302 298 293 288 284 279 277 276 274 269 263 253 248 247 245 244 245 247 252 256 255
194 192 188 184 181 180 180 178 174 176 189 226 289 314 326 329 331 333 334 334 335 337 338 340 341 343 345 344 344 345 347 347 347 347 348 349 349 350 350 350 350 349 349 349 347 346 345 344 343 342 341 341 341 340 339 338 336 334 332 331 326 318 312 308 304 301 296 290 286 281 277 276 274 270 264 256 249 246 245 243 242 245 251 256 256
186 184 180 177 177 178 178 176 175 186 208 250 298 320 330 332 334 336 335 336 338 339 341 343 344 346 347 347 347 349 349 349 349 349 349 350 352 352 352 352 352 351 352 351 350 349 348 347 346 345 345 345 344 343 341 339 338 336 336 336 333 325 317 313 311 308 303 294 287 282 279 277 275 271 264 257 251 248 246 242 241 246 251 254 258
180 178 176 175 176 176 176 177 183 201 229 281 318 331 337 338 339 338 338 340 341 343 345 347 348 350 350 351 351 351 351 351 350 350 352 352 354 354 354 354 353 353 354 354 354 353 351 350 349 349 349 348 347 344 342 341 340 338 338 338 338 334 327 323 320 317 314 306 293 283 277 275 276 272 266 258 251 248 248 244 241 244 249 252 258
175 173 173 174 174 175 176 183 195 213 255 314 336 342 342 342 341 340 342 344 345 348 351 352 352 353 353 354 354 353 352 352 352 353 354 355 356 357 356 356 355 355 355 355 356 356 355 354 353 353 352 351 348 345 344 342 341 340 339 339 338 336 333 330 327 325 322 318 308 292 276 270 271 272 268 260 252 249 250 248 242 241 246 251 257
170 171 173 173 172 174 179 188 205 227 293 336 346 347 345 344 346 347 349 350 353 355 356 356 356 356 356 356 356 355 354 353 354 355 356 357 358 358 358 357 357 357 357 357 358 358 358 357 356 356 355 352 349 348 346 345 344 342 341 340 338 335 333 332 331 328 325 320 314 306 290 272 265 265 265 262 254 250 252 251 243 240 244 251 255
168 170 172 171 172 176 181 188 204 245 339 350 351 349 348 350 353 354 356 359 1 1 359 359 358 358 358 357 357 356 356 356 357 358 358 360 0 360 360 360 358 358 359 360 360 359 359 358 358 358 356 354 352 351 350 350 349 347 345 345 342 336 334 335 335 333 331 325 312 300 298 289 272 261 259 259 256 254 254 252 245 241 244 249 253
168 170 170 171 173 176 180 184 185 34 1 356 354 352 354 359 1 3 6 6 6 5 3 2 1 0 359 358 358 358 358 359 359 360 1 2 2 1 2 1 0 360 0 0 0 0 0 360 360 359 358 356 354 353 354 355 355 352 352 353 350 343 340 342 341 339 343 343 325 292 283 287 280 265 256 253 254 254 254 251 245 242 244 249 254
166 168 169 171 173 175 176 171 146 74 15 2 360 360 5 9 10 11 13 12 10 8 6 4 4 2 0 359 359 1 1 1 2 2 3 3 3 3 3 3 2 2 1 0 1 1 1 1 360 358 357 357 356 356 359 1 359 357 358 360 358 355 353 351 349 345 347 355 355 329 287 277 274 267 257 248 247 249 249 247 244 242 245 250 256
165 166 169 171 172 172 166 151 129 93 40 17 12 15 17 17 17 16 16 14 12 10 8 6 5 3 2 1 3 3 3 4 4 4 4 4 4 4 5 4 4 3 2 2 3 2 2 1 359 357 357 359 360 1 3 5 3 2 2 3 3 3 2 360 358 353 349 356 7 9 348 302 270 260 252 244 242 240 239 240 240 239 242 248 257
163 166 169 169 168 165 157 144 131 115 89 53 35 30 25 22 21 19 17 15 13 10 8 7 5 4 3 3 5 5 6 6 5 5 4 4 4 5 6 6 5 3 3 4 4 3 3 2 0 359 0 2 3 4 6 7 6 7 7 6 4 4 5 5 4 2 358 358 8 17 16 3 322 271 250 239 235 232 231 233 236 238 242 248 257
164 167 168 167 165 159 154 149 141 132 112 76 50 37 30 25 22 20 17 15 12 9 8 7 5 5 4 5 5 6 7 8 7 5 4 4 5 6 6 6 5 4 4 5 5 5 5 4 3 2 3 4 6 7 8 8 8 10 12 12 9 7 7 7 6 6 6 6 11 18 22 21 16 344 271 241 234 229 226 230 235 240 245 251 259
167 169 168 167 165 160 158 156 150 140 119 82 58 41 32 25 20 19 17 14 11 9 8 7 5 5 5 5 6 6 8 8 7 6 6 5 6 7 6 5 5 5 5 5 5 6 7 7 6 5 4 5 8 10 11 10 10 11 14 16 17 14 11 9 9 9 11 13 16 21 23 26 32 34 23 256 234 230 226 227 233 240 246 252 261
170 170 169 169 168 165 164 163 158 149 126 82 56 39 30 23 18 17 15 12 10 10 8 7 6 5 5 6 6 7 8 8 7 7 7 6 7 8 7 7 6 6 6 6 5 6 8 9 8 7 6 7 8 11 12 13 13 13 13 17 19 18 15 15 15 15 16 17 20 25 27 29 37 43 45 52 81 207 220 222 229 236 244 251 261
173 173 173 172 172 173 172 169 167 161 135 76 49 35 24 17 15 13 11 10 9 9 8 7 6 6 6 6 7 7 8 9 8 8 8 7 7 7 7 8 8 6 6 5 3 5 9 10 10 10 9 8 9 11 12 14 15 15 15 17 18 18 18 19 20 20 20 19 21 26 30 33 39 42 44 51 62 72 104 182 208 220 228 242 259
177 177 178 177 178 180 178 176 177 179 171 63 33 25 15 10 9 7 7 7 7 7 7 6 6 7 7 7 8 8 8 8 8 9 9 9 8 8 8 8 8 7 5 3 3 7 10 11 11 12 11 10 10 10 12 14 15 16 18 19 19 18 19 20 20 21 22 22 23 26 31 35 40 42 42 46 53 57 60 65 69 78 170 222 283
181 181 182 183 184 186 186 185 189 199 212 274 7 10 5 3 2 360 1 4 5 6 6 5 5 7 7 7 9 8 8 8 9 9 10 10 9 9 9 9 8 6 4 4 6 9 10 12 14 14 13 12 11 10 12 14 14 16 18 20 20 20 19 19 19 20 22 24 26 28 33 38 41 42 42 43 48 53 55 57 58 56 56 58 39
185 185 186 188 189 191 194 195 200 214 229 267 326 348 355 354 352 351 355 0 3 5 5 5 5 6 6 8 8 8 8 8 8 9 11 10 10 10 10 9 8 6 5 6 8 9 10 13 16 16 15 14 12 11 12 14 14 16 18 20 21 21 20 20 19 19 21 25 26 29 35 40 41 43 44 44 47 52 55 56 57 58 60 62 58
188 188 189 192 193 197 201 204 211 224 238 264 298 326 341 342 342 343 348 356 1 2 3 4 5 5 6 7 8 7 8 8 8 9 11 10 10 11 11 9 8 8 9 10 9 9 11 14 16 17 16 15 14 13 13 14 15 17 18 20 21 21 20 21 21 20 23 26 26 28 35 39 41 44 45 45 46 50 54 55 55 56 59 63 64
192 192 194 195 197 202 207 211 219 230 241 258 281 305 321 328 334 338 342 349 355 358 1 3 4 4 5 6 7 7 7 7 7 9 10 10 11 10 9 9 9 10 12 12 10 10 12 14 15 17 18 16 15 15 14 14 16 18 18 20 21 21 20 22 23 22 24 27 27 29 33 37 40 43 45 44 45 47 50 52 52 53 55 58 62
195 197 197 197 200 207 212 216 223 233 243 256 274 290 304 317 328 333 337 343 348 350 354 359 2 2 2 3 4 5 6 6 7 8 9 10 11 9 7 9 11 12 13 13 12 11 12 13 15 17 18 17 16 16 16 15 17 19 19 20 21 21 21 22 24 24 25 28 29 30 33 36 38 40 43 44 44 45 47 48 48 48 49 52 56
198 201 199 198 204 211 215 219 226 234 244 256 269 283 296 309 320 326 332 336 340 344 347 352 356 358 359 360 0 1 4 5 5 6 7 9 9 8 8 10 12 12 13 13 13 12 13 13 14 17 18 17 16 17 17 18 19 20 20 21 22 22 22 23 25 24 25 27 29 31 33 35 37 39 41 44 45 46 47 49 48 47 47 48 52
200 203 200 200 207 213 217 222 228 236 245 256 268 279 290 300 309 317 325 328 331 336 340 344 348 351 353 355 356 358 0 1 2 3 6 7 8 9 9 10 11 11 12 13 13 13 13 13 13 16 17 17 17 17 18 19 20 20 21 22 23 23 23 24 26 26 26 27 29 30 32 35 36 38 40 43 45 46 48 50 51 51 51 51 54
202 203 203 205 210 215 219 225 230 236 245 253 264 274 282 290 298 306 315 320 323 328 332 337 341 344 346 349 351 352 354 356 358 1 3 5 6 8 9 9 9 10 11 12 13 13 14 13 13 15 16 17 17 17 18 20 21 21 21 22 23 24 24 25 27 28 28 30 31 31 32 35 37 37 39 42 44 46 47 48 50 53 53 53 55
202 204 206 209 213 216 221 226 231 237 244 251 258 267 275 282 289 297 305 311 315 320 324 329 333 337 339 341 343 345 348 351 355 358 360 1 2 4 6 7 7 8 10 11 12 13 13 13 14 14 15 16 16 17 18 20 21 21 22 22 23 23 24 24 26 27 29 31 32 31 32 35 36 36 37 40 43 45 47 47 47 50 51 51 51
204 208 210 213 216 219 223 228 233 237 243 249 254 260 267 275 282 288 295 303 308 312 317 320 323 327 331 334 336 339 342 346 349 353 355 356 358 360 3 5 5 6 8 9 11 12 12 13 14 15 15 15 16 16 18 20 21 22 23 23 23 24 24 25 26 27 28 31 32 32 32 35 36 37 37 39 41 44 47 48 47 49 51 53 52
207 210 213 216 220 222 226 231 235 239 244 249 253 258 262 268 275 282 288 294 300 305 309 312 314 317 321 325 329 332 334 339 343 346 349 352 354 356 359 1 2 4 6 7 9 10 11 12 13 14 15 16 16 17 17 18 20 22 23 24 24 24 25 25 26 27 28 30 31 31 32 34 36 37 37 39 40 42 45 49 50 50 52 55 56
209 213 216 220 223 226 230 233 237 241 246 250 253 257 260 264 269 276 282 288 293 297 302 306 308 311 314 317 321 325 329 332 336 339 343 346 349 352 354 356 358 1 3 4 5 8 10 11 12 13 15 17 17 18 18 18 19 21 23 24 24 24 25 26 26 28 30 31 30 31 31 32 34 36 36 39 41 41 43 47 50 51 53 55 57
212 215 218 222 226 230 233 236 240 243 247 251 255 257 260 262 266 271 277 282 287 291 296 300 303 306 310 313 315 319 322 326 330 333 336 340 343 346 349 351 354 356 358 360 2 4 6 9 10 11 13 15 17 18 19 19 20 21 22 24 25 25 26 26 26 28 31 32 32 32 31 31 33 35 35 37 40 42 43 45 48 50 52 53 56
215 217 221 225 229 233 236 240 243 246 249 252 256 258 260 262 265 268 273 278 283 287 292 295 298 302 306 310 312 315 318 322 326 328 330 331 334 339 343 346 348 351 353 355 358 360 2 5 8 9 10 12 15 18 19 19 20 21 22 23 25 26 27 27 26 26 28 31 34 35 33 32 33 35 36 36 38 40 42 44 46 49 50 51 53
217 220 224 228 232 236 239 242 245 248 251 254 256 259 262 264 265 267 270 274 279 284 287 291 294 298 302 306 310 312 315 319 322 323 324 325 327 330 335 339 342 345 347 350 352 354 357 360 3 7 8 10 12 16 19 20 21 21 22 23 24 25 26 27 28 28 27 28 31 34 34 33 33 33 36 37 37 38 40 42 44 47 49 49 50
221 224 227 231 234 238 242 245 247 250 252 255 257 259 262 265 266 267 269 272 275 279 283 287 291 294 297 301 305 308 310 313 316 319 320 321 322 323 326 330 334 338 341 343 346 349 352 355 358 2 6 7 9 12 16 20 22 23 22 23 24 24 25 26 27 28 29 29 29 30 32 34 34 33 34 36 37 38 39 40 42 44 47 48 49
225 227 230 233 237 240 243 246 249 251 253 256 258 260 262 265 267 268 270 272 273 276 280 283 286 290 293 296 299 302 305 308 310 313 315 317 317 318 320 322 326 330 334 337 339 342 345 349 353 357 1 4 6 9 13 17 21 23 24 24 24 25 25 26 26 27 28 29 29 29 30 32 34 34 34 34 36 37 38 39 40 42 44 45 47
229 231 234 236 239 243 246 248 250 253 255 257 258 260 262 265 267 269 271 273 274 276 278 280 283 286 288 291 294 297 300 303 305 307 309 311 312 313 314 316 319 323 326 330 333 335 338 342 346 351 356 360 3 6 9 14 18 21 24 25 25 25 26 26 26 27 27 27 28 29 30 31 32 33 32 32 33 34 36 37 38 39 41 43 44
233 235 238 240 242 245 248 251 253 255 257 258 260 261 263 265 268 270 272 273 275 276 277 279 281 283 285 287 289 292 294 297 299 302 304 305 307 308 309 311 313 316 318 322 325 327 331 334 338 343 349 354 358 2 5 10 15 19 22 24 25 25 26 26 27 28 28 27 26 27 28 29 31 32 31 30 30 30 31 33 34 36 38 39 41
237 239 241 244 246 248 251 254 256 258 259 260 261 262 264 266 269 270 271 272 274 275 277 279 280 282 283 285 286 288 290 292 294 296 298 300 301 303 304 305 307 309 311 314 316 319 322 325 329 333 338 344 350 355 358 3 8 14 19 22 24 25 25 25 26 27 28 28 27 27 26 26 27 29 30 31 30 28 27 28 28 30 32 34 35
239 242 245 247 249 251 254 256 258 259 260 260 261 262 264 267 269 271 272 273 273 274 276 278 279 280 281 283 284 285 286 287 289 291 293 294 296 297 299 300 301 303 304 306 309 311 314 316 318 322 326 331 338 344 349 354 359 5 11 16 20 22 24 25 25 26 26 26 26 27 26 25 24 24 26 28 29 29 28 26 25 24 24 26 28
Height
3150 3149 3149 3148 3148 3149 3149 3149 3149 3149 3149 3149 3149 3150 3149 3149 3149 3149 3149 3148 3148 3147 3146 3145 3144 3143 3142 3140 3139 3137 3135 3134 3132 3130 3129 3127 3125 3123 3120 3118 3116 3114 3112 3109 3107 3105 3103 3101 3098 3096 3094 3091 3089 3087 3085 3083 3081 3080 3077 3075 3075 3073 3070 3068 3064 3063 3068 3068 3065 3065 3066 3063 3063 3063 3061 3060 3059 3058 3057 3056 3057 3057 3058 3058 3059
3148 3148 3147 3147 3147 3147 3147 3147 3148 3148 3148 3148 3148 3148 3148 3148 3148 3147 3147 3147 3146 3145 3144 3143 3142 3141 3139 3138 3136 3135 3133 3132 3130 3128 3127 3124 3122 3120 3118 3116 3114 3112 3109 3107 3105 3102 3100 3097 3095 3093 3091 3088 3086 3083 3081 3079 3076 3074 3073 3070 3069 3068 3065 3063 3060 3057 3059 3062 3061 3060 3060 3059 3057 3058 3057 3055 3054 3054 3053 3052 3052 3052 3053 3054 3054
3146 3146 3146 3146 3146 3146 3146 3146 3146 3146 3147 3147 3147 3147 3146 3146 3146 3146 3145 3145 3144 3143 3142 3141 3140 3139 3137 3136 3135 3133 3132 3131 3129 3127 3125 3123 3120 3118 3116 3114 3111 3109 3106 3104 3102 3099 3096 3094 3091 3089 3087 3084 3082 3080 3077 3075 3072 3070 3068 3065 3063 3062 3061 3058 3055 3052 3051 3054 3055 3055 3054 3054 3053 3053 3052 3050 3049 3049 3048 3048 3048 3048 3048 3049 3050
3145 3145 3145 3145 3145 3145 3145 3145 3145 3145 3145 3145 3145 3145 3145 3145 3144 3144 3144 3143 3142 3141 3140 3139 3138 3137 3136 3135 3133 3132 3131 3129 3127 3125 3123 3121 3119 3116 3114 3111 3109 3106 3104 3101 3098 3096 3093 3090 3088 3085 3082 3080 3077 3075 3073 3070 3068 3065 3063 3061 3058 3056 3055 3053 3050 3048 3045 3045 3048 3049 3048 3048 3048 3048 3047 3046 3045 3044 3043 3043 3043 3043 3043 3044 3045
3143 3143 3144 3144 3144 3144 3144 3144 3144 3144 3144 3144 3144 3143 3143 3143 3143 3142 3141 3141 3140 3139 3138 3137 3136 3135 3134 3133 3132 3130 3129 3127 3125 3123 3121 3118 3116 3114 3111 3109 3106 3103 3101 3098 3095 3092 3089 3086 3084 3080 3078 3075 3072 3070 3068 3065 3062 3060 3057 3055 3053 3050 3049 3047 3045 3043 3041 3039 3040 3042 3042 3042 3041 3042 3042 3041 3040 3039 3039 3038 3038 3038 3038 3039 3040
3142 3142 3142 3142 3143 3143 3143 3143 3142 3142 3142 3142 3142 3142 3141 3141 3141 3140 3139 3139 3138 3137 3136 3135 3134 3134 3133 3131 3130 3128 3126 3124 3122 3120 3118 3116 3113 3111 3108 3106 3103 3100 3098 3095 3092 3089 3086 3082 3079 3076 3073 3070 3067 3064 3062 3059 3056 3054 3051 3048 3046 3044 3042 3041 3039 3037 3036 3034 3033 3034 3036 3036 3035 3036 3037 3036 3035 3034 3034 3033 3033 3032 3032 3033 3034
3141 3141 3141 3141 3141 3141 3141 3141 3141 3141 3141 3141 3140 3140 3140 3139 3139 3138 3138 3137 3136 3135 3134 3134 3133 3132 3131 3129 3128 3126 3124 3122 3120 3118 3115 3113 3110 3108 3105 3102 3100 3097 3094 3092 3089 3086 3082 3079 3075 3072 3069 3066 3062 3059 3056 3053 3051 3048 3045 3042 3040 3037 3035 3034 3032 3031 3029 3028 3028 3027 3029 3030 3030 3030 3031 3031 3030 3029 3029 3028 3027 3026 3027 3028 3029
3139 3139 3139 3140 3140 3140 3140 3140 3140 3140 3139 3139 3139 3138 3138 3138 3137 3136 3136 3135 3135 3134 3133 3132 3131 3130 3129 3127 3125 3124 3122 3120 3118 3116 3113 3110 3107 3105 3102 3100 3097 3094 3091 3088 3085 3082 3078 3075 3071 3068 3065 3061 3058 3055 3051 3047 3044 3042 3039 3036 3033 3031 3028 3026 3025 3023 3022 3021 3022 3022 3022 3023 3024 3025 3025 3025 3025 3025 3025 3023 3022 3022 3022 3023 3025
3137 3138 3138 3138 3138 3138 3138 3138 3138 3138 3138 3138 3137 3137 3137 3136 3136 3135 3135 3134 3134 3133 3132 3131 3130 3128 3126 3125 3123 3121 3119 3117 3115 3113 3110 3108 3105 3102 3100 3097 3094 3091 3088 3085 3081 3078 3075 3071 3068 3065 3061 3058 3055 3052 3048 3044 3040 3036 3033 3030 3027 3024 3022 3019 3017 3015 3014 3013 3014 3015 3015 3016 3018 3019 3019 3020 3020 3020 3020 3019 3018 3018 3018 3019 3020
3136 3136 3137 3137 3137 3137 3137 3137 3137 3137 3137 3137 3136 3136 3136 3135 3135 3135 3134 3133 3133 3132 3131 3129 3128 3126 3124 3123 3121 3119 3117 3115 3112 3110 3107 3105 3103 3101 3098 3095 3092 3088 3085 3082 3079 3075 3072 3068 3065 3062 3058 3055 3052 3049 3046 3042 3038 3034 3029 3026 3022 3019 3016 3013 3011 3008 3006 3005 3005 3006 3006 3008 3011 3012 3012 3014 3015 3014 3015 3014 3014 3014 3014 3014 3015
3135 3135 3135 3135 3135 3135 3135 3135 3135 3135 3135 3135 3135 3135 3135 3135 3134 3134 3133 3132 3131 3130 3129 3128 3126 3125 3123 3121 3119 3117 3115 3112 3110 3108 3106 3103 3101 3098 3095 3092 3089 3086 3083 3079 3076 3072 3069 3066 3062 3059 3055 3051 3048 3045 3042 3039 3035 3031 3027 3023 3019 3015 3011 3008 3005 3002 2999 2997 2997 2998 2998 2999 3003 3005 3005 3007 3009 3008 3009 3009 3009 3010 3010 3009 3010
3133 3133 3133 3133 3134 3134 3134 3134 3134 3134 3134 3134 3134 3134 3134 3134 3133 3133 3132 3131 3130 3129 3128 3126 3125 3123 3122 3120 3118 3116 3113 3111 3109 3107 3104 3102 3099 3096 3093 3090 3086 3083 3079 3076 3072 3069 3065 3062 3059 3055 3052 3047 3044 3040 3037 3034 3031 3027 3023 3019 3015 3012 3008 3004 3000 2997 2993 2990 2989 2990 2990 2991 2994 2997 2999 3000 3001 3002 3002 3003 3004 3005 3005 3004 3005
3131 3132 3132 3132 3133 3133 3133 3133 3133 3133 3133 3134 3134 3133 3133 3133 3132 3132 3131 3130 3129 3128 3127 3125 3124 3122 3121 3119 3116 3114 3112 3110 3108 3105 3103 3100 3097 3094 3091 3087 3084 3080 3076 3073 3069 3065 3062 3058 3055 3051 3048 3044 3040 3035 3032 3028 3025 3022 3018 3014 3011 3007 3004 3000 2996 2992 2989 2985 2982 2981 2983 2983 2984 2989 2993 2993 2993 2994 2996 2997 2999 3000 3000 3000 3001
3130 3130 3131 3131 3132 3132 3132 3132 3133 3133 3133 3133 3133 3133 3133 3132 3132 3131 3130 3129 3128 3127 3126 3124 3123 3121 3119 3117 3115 3113 3111 3109 3106 3104 3101 3098 3095 3092 3089 3086 3082 3078 3074 3070 3066 3062 3059 3055 3051 3048 3044 3040 3036 3032 3027 3023 3020 3016 3013 3010 3006 3002 2999 2995 2991 2988 2984 2981 2977 2974 2975 2976 2976 2981 2985 2986 2986 2988 2989 2991 2993 2994 2994 2995 2997
3128 3129 3129 3130 3131 3131 3131 3132 3132 3132 3132 3132 3132 3132 3132 3132 3131 3130 3129 3128 3127 3126 3124 3123 3122 3120 3118 3116 3114 3112 3110 3107 3105 3102 3100 3097 3094 3091 3087 3084 3080 3076 3072 3068 3064 3060 3057 3053 3049 3046 3042 3038 3033 3029 3024 3020 3016 3012 3008 3005 3001 2998 2994 2990 2986 2982 2979 2976 2973 2970 2969 2969 2969 2973 2977 2979 2979 2981 2983 2984 2986 2988 2988 2989 2991
3127 3127 3128 3129 3129 3130 3130 3131 3131 3132 3132 3132 3132 3132 3131 3131 3130 3129 3128 3127 3126 3125 3123 3122 3120 3118 3116 3114 3112 3110 3108 3105 3103 3100 3098 3095 3092 3089 3085 3082 3078 3074 3070 3067 3063 3059 3055 3052 3048 3044 3040 3036 3031 3027 3022 3017 3012 3008 3004 3000 2996 2993 2990 2986 2981 2977 2974 2970 2968 2966 2964 2963 2963 2966 2970 2972 2973 2975 2977 2977 2979 2982 2983 2984 2985
3125 3126 3127 3128 3128 3129 3130 3130 3131 3131 3131 3131 3131 3131 3131 3130 3129 3128 3127 3126 3125 3123 3122 3120 3119 3117 3115 3113 3111 3108 3106 3103 3101 3098 3096 3094 3090 3087 3083 3080 3076 3073 3069 3065 3061 3058 3054 3050 3047 3042 3038 3034 3029 3024 3019 3014 3009 3004 2999 2996 2992 2987 2984 2981 2978 2974 2970 2966 2964 2961 2960 2958 2957 2959 2963 2965 2966 2969 2969 2970 2974 2978 2978 2978 2980
3124 3125 3126 3127 3128 3128 3129 3130 3130 3130 3130 3130 3130 3130 3130 3129 3128 3127 3126 3125 3124 3122 3120 3119 3117 3115 3113 3111 3109 3106 3104 3102 3099 3097 3094 3091 3088 3085 3081 3078 3074 3071 3067 3063 3060 3057 3053 3049 3045 3041 3036 3032 3027 3022 3017 3011 3006 3000 2995 2991 2987 2983 2979 2976 2973 2969 2966 2963 2960 2957 2956 2954 2953 2953 2956 2958 2960 2962 2963 2965 2970 2973 2972 2973 2976
3123 3124 3125 3126 3127 3128 3128 3129 3129 3130 3130 3130 3129 3129 3128 3128 3127 3126 3125 3124 3122 3121 3119 3118 3116 3114 3112 3110 3107 3105 3103 3100 3098 3095 3093 3090 3086 3083 3079 3076 3072 3069 3065 3062 3058 3055 3052 3048 3044 3039 3035 3030 3026 3021 3015 3010 3004 2998 2993 2988 2983 2980 2976 2972 2968 2963 2960 2957 2955 2953 2952 2950 2949 2949 2951 2953 2955 2956 2957 2960 2965 2966 2967 2969 2972
3122 3123 3124 3125 3126 3127 3128 3128 3128 3129 3129 3128 3128 3128 3128 3127 3126 3125 3124 3123 3121 3120 3118 3116 3114 3113 3110 3108 3106 3104 3102 3099 3097 3094 3091 3088 3085 3081 3078 3074 3070 3067 3063 3060 3056 3053 3050 3046 3042 3038 3034 3029 3025 3020 3014 3009 3003 2997 2992 2987 2982 2977 2974 2970 2966 2961 2956 2953 2951 2949 2948 2947 2946 2946 2946 2948 2950 2951 2952 2955 2959 2961 2962 2965 2967
3121 3122 3123 3124 3125 3126 3127 3127 3128 3128 3128 3127 3127 3127 3127 3126 3125 3124 3123 3122 3120 3118 3117 3115 3113 3111 3109 3107 3106 3103 3101 3098 3095 3093 3090 3087 3083 3080 3076 3072 3069 3065 3062 3058 3055 3052 3048 3045 3040 3036 3032 3028 3024 3019 3014 3009 3003 2998 2992 2987 2983 2978 2973 2969 2965 2961 2956 2951 2947 2945 2944 2943 2943 2942 2943 2944 2945 2947 2948 2951 2954 2956 2958 2961 2963
3120 3121 3122 3124 3125 3125 3126 3127 3127 3127 3127 3126 3126 3126 3126 3125 3124 3123 3122 3120 3119 3118 3116 3114 3112 3111 3109 3107 3105 3102 3100 3097 3094 3092 3089 3085 3082 3079 3075 3071 3068 3064 3061 3058 3055 3051 3047 3043 3039 3035 3032 3028 3023 3019 3014 3008 3003 2998 2993 2988 2984 2979 2974 2969 2965 2960 2956 2950 2945 2943 2941 2941 2940 2939 2940 2940 2941 2943 2944 2947 2949 2952 2954 2956 2958
3119 3121 3122 3123 3124 3125 3125 3126 3126 3126 3126 3126 3126 3125 3125 3124 3123 3122 3121 3119 3118 3117 3115 3113 3112 3110 3108 3106 3104 3101 3099 3096 3093 3091 3088 3085 3082 3078 3074 3071 3067 3064 3060 3057 3054 3050 3046 3042 3038 3035 3032 3028 3024 3019 3013 3008 3004 2999 2994 2989 2984 2979 2974 2969 2965 2960 2955 2951 2945 2941 2939 2938 2937 2937 2937 2937 2938 2939 2941 2943 2945 2948 2950 2952 2954
3119 3120 3121 3122 3123 3124 3124 3125 3125 3125 3125 3125 3125 3125 3124 3123 3122 3121 3120 3119 3117 3116 3114 3113 3111 3110 3108 3106 3103 3101 3098 3096 3093 3090 3087 3085 3082 3078 3074 3071 3067 3064 3061 3057 3053 3050 3046 3042 3039 3035 3032 3028 3023 3019 3014 3010 3005 2999 2994 2989 2984 2979 2974 2969 2964 2959 2955 2951 2945 2940 2937 2935 2934 2934 2934 2934 2935 2936 2938 2939 2942 2944 2946 2948 2950
3118 3119 3120 3121 3122 3123 3124 3124 3125 3125 3125 3125 3124 3124 3123 3122 3121 3120 3119 3118 3117 3116 3114 3113 3111 3109 3108 3105 3103 3101 3098 3096 3093 3090 3088 3085 3081 3078 3074 3071 3068 3064 3061 3057 3054 3051 3047 3043 3039 3035 3031 3027 3023 3019 3015 3010 3006 3000 2994 2989 2984 2980 2974 2969 2964 2959 2955 2950 2946 2941 2937 2934 2932 2931 2931 2931 2932 2933 2934 2936 2938 2940 2943 2945 2946
3117 3118 3119 3121 3122 3122 3123 3124 3124 3124 3124 3124 3124 3123 3122 3121 3120 3120 3119 3118 3116 3115 3114 3112 3111 3109 3107 3105 3103 3101 3098 3096 3093 3090 3087 3084 3081 3077 3074 3071 3068 3065 3061 3057 3054 3050 3046 3043 3039 3035 3031 3028 3024 3019 3015 3011 3006 3001 2995 2990 2985 2980 2975 2969 2965 2960 2955 2951 2947 2942 2939 2936 2933 2931 2929 2929 2929 2930 2931 2933 2935 2937 2939 2941 2943
3116 3118 3119 3120 3121 3122 3122 3123 3123 3123 3123 3123 3123 3122 3122 3121 3120 3119 3118 3117 3116 3115 3113 3112 3110 3108 3107 3105 3102 3100 3098 3095 3093 3090 3087 3084 3081 3077 3074 3071 3068 3064 3060 3057 3053 3049 3046 3042 3038 3035 3031 3028 3024 3020 3016 3011 3007 3001 2996 2991 2986 2981 2976 2971 2967 2961 2956 2952 2948 2944 2941 2938 2934 2931 2929 2928 2928 2928 2929 2931 2933 2935 2936 2938 2940
3115 3117 3118 3119 3120 3121 3122 3122 3122 3123 3123 3122 3122 3122 3121 3120 3120 3119 3118 3117 3116 3114 3113 3111 3110 3108 3106 3104 3102 3099 3097 3094 3092 3089 3086 3083 3080 3077 3074 3070 3067 3063 3059 3056 3052 3049 3046 3042 3039 3035 3032 3028 3024 3020 3016 3012 3007 3002 2997 2992 2987 2983 2979 2974 2969 2964 2958 2954 2950 2946 2942 2939 2935 2931 2929 2927 2927 2927 2928 2929 2930 2932 2933 2935 2936
3115 3116 3117 3118 3119 3120 3121 3121 3121 3121 3122 3121 3121 3121 3120 3120 3119 3118 3117 3116 3115 3114 3113 3111 3109 3107 3105 3103 3101 3098 3096 3094 3091 3088 3085 3082 3079 3076 3073 3069 3066 3062 3058 3055 3052 3049 3046 3043 3039 3036 3032 3028 3024 3020 3016 3012 3008 3004 2998 2993 2988 2984 2980 2974 2969 2965 2960 2956 2952 2947 2943 2939 2936 2932 2930 2928 2927 2927 2927 2928 2929 2930 2931 2932 2933
3114 3115 3116 3117 3118 3119 3120 3120 3120 3121 3121 3120 3120 3120 3119 3119 3118 3118 3117 3116 3115 3113 3112 3110 3109 3107 3105 3103 3100 3098 3096 3093 3091 3088 3085 3082 3079 3075 3072 3069 3066 3062 3059 3056 3053 3050 3046 3043 3039 3036 3032 3028 3024 3020 3016 3012 3009 3004 3000 2995 2990 2985 2980 2975 2971 2968 2963 2958 2954 2949 2945 2941 2937 2934 2932 2930 2929 2928 2928 2928 2928 2929 2929 2929 2930
3113 3114 3115 3116 3117 3118 3119 3119 3119 3120 3120 3119 3119 3119 3119 3118 3117 3117 3116 3115 3114 3113 3111 3110 3108 3106 3104 3102 3100 3098 3095 3093 3090 3088 3085 3082 3079 3076 3073 3069 3066 3063 3060 3057 3053 3050 3047 3043 3040 3036 3032 3029 3025 3021 3017 3013 3009 3005 3001 2996 2992 2987 2983 2978 2974 2970 2966 2962 2957 2953 2948 2944 2940 2937 2935 2933 2931 2930 2929 2929 2929 2928 2928 2928 2929
3112 3113 3114 3115 3116 3117 3117 3118 3118 3118 3118 3118 3118 3118 3118 3117 3117 3116 3115 3114 3113 3112 3110 3109 3107 3105 3103 3101 3099 3097 3095 3092 3090 3087 3084 3082 3079 3076 3073 3070 3067 3064 3061 3057 3053 3050 3047 3044 3040 3037 3033 3029 3026 3022 3018 3014 3010 3006 3002 2998 2994 2990 2986 2982 2978 2974 2969 2965 2961 2956 2951 2947 2944 2941 2939 2937 2935 2933 2932 2931 2930 2929 2929 2928 2928
3110 3112 3113 3114 3115 3115 3116 3117 3117 3117 3117 3117 3117 3117 3117 3116 3116 3115 3114 3113 3112 3111 3110 3108 3106 3105 3103 3101 3099 3096 3094 3092 3090 3087 3084 3082 3079 3076 3073 3071 3068 3065 3061 3057 3054 3051 3048 3045 3041 3038 3034 3031 3027 3024 3020 3016 3012 3008 3004 3000 2997 2993 2990 2986 2982 2978 2973 2969 2965 2960 2955 2951 2948 2945 2942 2940 2938 2936 2934 2933 2932 2931 2931 2930 2929
3109 3110 3111 3112 3113 3114 3115 3115 3116 3116 3116 3116 3116 3116 3116 3115 3115 3114 3113 3112 3111 3110 3109 3107 3106 3104 3102 3100 3098 3096 3094 3092 3090 3087 3085 3082 3079 3076 3074 3071 3068 3064 3061 3057 3055 3052 3049 3046 3042 3039 3036 3032 3029 3026 3022 3018 3014 3011 3007 3003 3000 2996 2993 2989 2985 2981 2977 2973 2969 2965 2960 2956 2952 2949 2946 2944 2942 2939 2937 2936 2934 2934 2933 2932 2931
3108 3109 3110 3111 3112 3113 3114 3114 3115 3115 3115 3115 3115 3115 3115 3114 3114 3113 3112 3111 3110 3109 3108 3106 3105 3103 3101 3100 3098 3096 3094 3092 3090 3087 3085 3082 3079 3077 3074 3071 3068 3065 3062 3059 3056 3053 3050 3047 3044 3041 3037 3034 3031 3028 3024 3021 3017 3013 3010 3006 3003 2999 2996 2992 2988 2984 2981 2977 2973 2969 2965 2961 2957 2954 2951 2948 2946 2943 2941 2939 2938 2937 2936 2935 2934
3106 3108 3109 3110 3111 3112 3112 3113 3113 3114 3114 3114 3114 3114 3113 3113 3112 3112 3111 3110 3109 3108 3107 3105 3104 3102 3101 3099 3097 3096 3094 3091 3089 3087 3085 3082 3080 3077 3075 3071 3069 3066 3063 3060 3057 3054 3051 3048 3045 3042 3039 3036 3033 3030 3027 3023 3019 3016 3013 3009 3006 3002 2999 2995 2991 2988 2984 2981 2977 2973 2970 2966 2963 2959 2956 2953 2950 2948 2946 2944 2943 2941 2940 2939 2938
3105 3106 3107 3108 3109 3110 3111 3111 3112 3112 3112 3112 3112 3112 3112 3111 3111 3110 3110 3109 3108 3107 3106 3104 3103 3101 3100 3098 3097 3095 3093 3091 3089 3087 3085 3083 3080 3077 3074 3072 3069 3067 3064 3061 3058 3055 3052 3049 3046 3043 3041 3038 3035 3032 3029 3025 3022 3019 3015 3012 3008 3005 3001 2998 2995 2992 2988 2985 2981 2977 2974 2970 2968 2965 2962 2958 2956 2953 2951 2950 2948 2947 2945 2944 2943
3103 3104 3105 3107 3108 3108 3109 3110 3110 3110 3111 3111 3110 3110 3110 3110 3109 3109 3108 3108 3107 3106 3105 3103 3102 3100 3099 3097 3095 3094 3092 3091 3089 3087 3084 3082 3080 3077 3075 3072 3070 3067 3065 3062 3059 3056 3053 3050 3048 3045 3042 3039 3036 3034 3030 3027 3024 3021 3017 3014 3011 3008 3004 3001 2998 2995 2992 2989 2985 2982 2979 2975 2973 2970 2967 2964 2961 2959 2957 2955 2953 2952 2950 2949 2948
3101 3103 3104 3105 3106 3107 3107 3108 3108 3109 3109 3109 3109 3109 3108 3108 3108 3107 3107 3106 3105 3104 3103 3102 3101 3100 3098 3096 3095 3093 3091 3090 3088 3086 3084 3082 3080 3078 3076 3073 3071 3068 3066 3063 3060 3057 3055 3052 3049 3046 3043 3040 3038 3035 3032 3029 3026 3023 3020 3017 3013 3010 3007 3004 3001 2998 2995 2992 2989 2986 2983 2980 2977 2975 2972 2969 2967 2964 2962 2960 2958 2957 2955 2954 2952
3100 3101 3102 3103 3104 3105 3105 3106 3107 3107 3107 3107 3107 3107 3107 3107 3106 3106 3105 3104 3104 3103 3102 3101 3100 3098 3097 3096 3094 3093 3091 3089 3087 3086 3084 3082 3080 3078 3076 3074 3072 3069 3067 3064 3061 3058 3056 3053 3050 3047 3044 3041 3039 3036 3034 3031 3028 3025 3022 3019 3016 3013 3010 3007 3004 3001 2998 2995 2993 2990 2988 2985 2982 2980 2977 2975 2972 2970 2968 2966 2964 2962 2961 2959 2958
3098 3099 3100 3101 3102 3103 3104 3104 3104 3105 3105 3105 3105 3105 3105 3105 3104 3104 3103 3103 3102 3101 3100 3099 3098 3097 3096 3095 3093 3092 3090 3089 3087 3085 3084 3082 3080 3078 3076 3074 3072 3070 3067 3064 3062 3059 3057 3054 3051 3048 3046 3043 3040 3037 3035 3032 3030 3027 3024 3021 3018 3016 3013 3010 3007 3004 3001 2999 2996 2994 2992 2989 2986 2984 2982 2980 2978 2976 2974 2972 2970 2968 2967 2965 2964
3096 3097 3098 3099 3100 3101 3101 3102 3102 3102 3103 3103 3103 3103 3103 3103 3102 3102 3101 3101 3100 3099 3099 3098 3097 3096 3095 3093 3092 3091 3089 3088 3086 3084 3083 3081 3080 3078 3076 3074 3072 3070 3067 3065 3063 3060 3057 3055 3052 3050 3047 3044 3041 3039 3036 3034 3031 3028 3026 3023 3021 3018 3016 3013 3010 3007 3004 3002 3000 2997 2995 2993 2991 2989 2987 2985 2983 2981 2979 2977 2975 2974 2972 2971 2970
3094 3095 3096 3097 3098 3099 3099 3100 3100 3100 3101 3101 3101 3101 3101 3101 3100 3100 3099 3099 3098 3097 3097 3096 3095 3094 3093 3092 3091 3090 3088 3087 3085 3083 3082 3080 3079 3077 3075 3074 3072 3070 3067 3065 3063 3060 3058 3055 3053 3050 3048 3045 3042 3040 3037 3035 3032 3030 3027 3025 3023 3020 3018 3016 3013 3011 3008 3005 3003 3001 2999 2997 2995 2993 2991 2989 2987 2985 2984 2982 2981 2979 2978 2976 2975
3092 3093 3094 3095 3096 3096 3097 3097 3098 3098 3098 3098 3099 3099 3099 3098 3098 3098 3097 3096 3096 3095 3095 3094 3093 3092 3091 3090 3089 3088 3087 3085 3084 3082 3081 3079 3078 3076 3075 3073 3071 3069 3067 3065 3063 3061 3058 3056 3054 3051 3049 3046 3044 3041 3038 3036 3034 3031 3029 3027 3024 3022 3020 3018 3016 3013 3011 3008 3006 3004 3002 3000 2999 2997 2995 2993 2991 2990 2988 2987 2985 2984 2983 2982 2981
3090 3091 3092 3093 3093 3094 3094 3095 3095 3096 3096 3096 3096 3096 3096 3096 3096 3095 3095 3094 3093 3093 3092 3091 3091 3090 3089 3087 3086 3086 3085 3084 3082 3081 3080 3078 3076 3075 3073 3072 3070 3069 3067 3065 3063 3061 3059 3056 3054 3052 3050 3047 3045 3042 3040 3037 3035 3033 3030 3028 3026 3024 3021 3019 3017 3015 3013 3011 3009 3007 3005 3003 3002 3000 2998 2997 2995 2994 2992 2991 2989 2988 2987 2986 2985
3088 3089 3090 3090 3091 3091 3092 3092 3093 3093 3093 3094 3094 3094 3094 3093 3093 3093 3092 3092 3091 3090 3090 3089 3088 3087 3086 3085 3084 3083 3082 3081 3080 3079 3078 3077 3075 3074 3072 3071 3069 3068 3066 3064 3063 3061 3059 3057 3054 3052 3050 3048 3046 3043 3041 3038 3036 3034 3032 3029 3027 3025 3023 3021 3019 3017 3015 3013 3011 3009 3007 3006 3004 3003 3001 3000 2999 2997 2996 2995 2993 2992 2991 2990 2989
3085 3086 3087 3088 3088 3089 3089 3090 3090 3091 3091 3091 3091 3091 3091 3091 3090 3090 3089 3089 3088 3088 3087 3086 3086 3085 3084 3083 3082 3081 3080 3079 3078 3077 3076 3075 3074 3072 3071 3069 3068 3067 3065 3063 3062 3060 3058 3056 3054 3052 3050 3048 3046 3044 3042 3039 3037 3035 3033 3030 3028 3026 3024 3022 3020 3018 3017 3015 3014 3012 3010 3008 3007 3005 3004 3003 3002 3000 2999 2998 2997 2996 2995 2994 2993
3083 3084 3085 3085 3086 3086 3087 3087 3087 3088 3088 3088 3088 3088 3088 3088 3087 3087 3086 3086 3085 3085 3084 3084 3083 3082 3081 3080 3079 3078 3077 3076 3076 3075 3074 3073 3072 3071 3069 3068 3066 3065 3064 3062 3061 3059 3058 3056 3054 3052 3050 3049 3047 3045 3043 3040 3038 3036 3034 3032 3030 3028 3026 3024 3022 3020 3018 3016 3015 3014 3012 3011 3009 3007 3006 3005 3004 3003 3002 3001 3000 2999 2998 2997 2996
3080 3081 3082 3083 3083 3084 3084 3084 3085 3085 3085 3085 3085 3085 3085 3085 3084 3084 3084 3083 3082 3082 3081 3081 3080 3079 3078 3078 3077 3076 3075 3074 3073 3072 3071 3070 3069 3068 3067 3066 3065 3063 3062 3061 3059 3058 3057 3055 3054 3052 3050 3048 3047 3045 3043 3041 3039 3037 3035 3032 3030 3029 3027 3025 3023 3021 3019 3017 3016 3015 3013 3012 3011 3009 3008 3007 3006 3005 3004 3003 3002 3001 3000 2999 2999
3077 3078 3079 3079 3080 3081 3081 3081 3081 3082 3082 3082 3082 3082 3081 3081 3081 3081 3080 3080 3079 3079 3078 3078 3077 3076 3075 3075 3074 3073 3072 3071 3070 3069 3069 3068 3067 3066 3065 3064 3062 3061 3060 3059 3058 3057 3055 3054 3053 3051 3050 3048 3046 3045 3043 3041 3040 3037 3035 3033 3031 3029 3028 3026 3024 3022 3020 3019 3017 3015 3014 3013 3012 3011 3010 3008 3007 3006 3005 3005 3004 3003 3002 3002 3001
3074 3075 3075 3076 3077 3077 3078 3078 3078 3078 3078 3078 3078 3078 3078 3078 3078 3077 3077 3076 3076 3076 3075 3074 3074 3073 3072 3072 3071 3070 3069 3068 3067 3067 3066 3065 3064 3063 3062 3061 3060 3059 3058 3057 3056 3055 3054 3052 3051 3050 3049 3047 3046 3044 3043 3041 3040 3038 3036 3034 3032 3030 3028 3027 3025 3023 3021 3020 3018 3016 3015 3014 3013 3012 3011 3010 3009 3008 3007 3006 3005 3005 3004 3003 3003